DLH1477 EKCH-EDDF

Flight info

Callsign DLH1477
Flight time N/A
Altitude 40000
Route NEXEN2A NEXEN T503 GIMRU DCT MICOS DCT RIMET/N0479F310 T157 KOKEB/N0421F230 T157 KERAX KERAX5A
Aircraft A346/H-SDE2E3FGHIJ3J4J5M1RWXY/LB1D1

Departure

Time 2026-05-06 18:20
Airport Copenhagen Kastrup Airport (EKCH)

Arrival

Time N/A
Airport Frankfurt Main Airport (EDDF)
Time Latitude Longitude Altitude Speed Heading
2026-05-06 17:50 55.62505 12.65086 30 ft 0 kts 268°
2026-05-06 18:01 55.62505 12.65093 28 ft 0 kts 268°
2026-05-06 18:01 55.62506 12.65137 31 ft 0 kts 268°
2026-05-06 18:02 55.62507 12.65185 31 ft 0 kts 268°
2026-05-06 18:02 55.62507 12.65232 31 ft 0 kts 268°
2026-05-06 18:02 55.62510 12.65272 31 ft 0 kts 254°
2026-05-06 18:10 55.62507 12.65260 29 ft 2 kts 243°
2026-05-06 18:10 55.62491 12.65234 31 ft 5 kts 210°
2026-05-06 18:10 55.62448 12.65211 26 ft 8 kts 190°
2026-05-06 18:11 55.62412 12.65207 27 ft 7 kts 182°
2026-05-06 18:11 55.62397 12.65206 30 ft 1 kts 181°
2026-05-06 18:11 55.62375 12.65206 30 ft 5 kts 180°
2026-05-06 18:11 55.62327 12.65202 27 ft 9 kts 184°
2026-05-06 18:12 55.62254 12.65196 27 ft 12 kts 185°
2026-05-06 18:12 55.62166 12.65138 30 ft 15 kts 211°
2026-05-06 18:12 55.62132 12.65095 29 ft 0 kts 214°
2026-05-06 18:13 55.62127 12.65090 29 ft 2 kts 214°
2026-05-06 18:13 55.62105 12.65064 27 ft 5 kts 214°
2026-05-06 18:13 55.62063 12.65014 32 ft 9 kts 213°
2026-05-06 18:13 55.61999 12.64940 26 ft 13 kts 213°
2026-05-06 18:14 55.61910 12.64838 28 ft 17 kts 213°
2026-05-06 18:14 55.61799 12.64712 30 ft 21 kts 213°
2026-05-06 18:14 55.61774 12.64683 30 ft 0 kts 213°
2026-05-06 18:15 55.61772 12.64680 30 ft 2 kts 213°
2026-05-06 18:15 55.61753 12.64659 29 ft 5 kts 213°
2026-05-06 18:15 55.61716 12.64616 28 ft 8 kts 213°
2026-05-06 18:15 55.61657 12.64549 27 ft 12 kts 213°
2026-05-06 18:16 55.61577 12.64458 28 ft 16 kts 214°
2026-05-06 18:16 55.61475 12.64337 30 ft 19 kts 213°
2026-05-06 18:16 55.61351 12.64195 26 ft 23 kts 213°
2026-05-06 18:16 55.61210 12.64034 30 ft 25 kts 213°
2026-05-06 18:17 55.61055 12.63855 30 ft 28 kts 213°
2026-05-06 18:17 55.60887 12.63663 29 ft 29 kts 213°
2026-05-06 18:17 55.60745 12.63500 28 ft 25 kts 214°
2026-05-06 18:17 55.60598 12.63310 29 ft 27 kts 221°
2026-05-06 18:18 55.60498 12.63154 27 ft 17 kts 218°
2026-05-06 18:18 55.60396 12.63169 26 ft 5 kts 141°
2026-05-06 18:18 55.60395 12.63170 26 ft 0 kts 141°
2026-05-06 18:18 55.60386 12.63184 30 ft 3 kts 138°
2026-05-06 18:19 55.60364 12.63227 30 ft 6 kts 129°
2026-05-06 18:19 55.60345 12.63301 28 ft 8 kts 103°
2026-05-06 18:19 55.60367 12.63386 27 ft 10 kts 47°
2026-05-06 18:19 55.60459 12.63533 26 ft 47 kts 41°
2026-05-06 18:20 55.60954 12.64305 27 ft 141 kts 41°
2026-05-06 18:20 55.61877 12.65718 240 ft 199 kts 44°
2026-05-06 18:20 55.62970 12.67377 1186 ft 205 kts 44°
2026-05-06 18:20 55.64050 12.68934 2382 ft 196 kts 43°
2026-05-06 18:21 55.65091 12.70462 3409 ft 195 kts 43°
2026-05-06 18:21 55.66137 12.72040 4275 ft 200 kts 44°
2026-05-06 18:21 55.67197 12.73685 5131 ft 207 kts 43°
2026-05-06 18:21 55.68293 12.75423 5892 ft 216 kts 43°
2026-05-06 18:22 55.69471 12.77309 6441 ft 240 kts 42°
2026-05-06 18:22 55.70783 12.79384 6916 ft 259 kts 41°
2026-05-06 18:22 55.72153 12.81545 7122 ft 267 kts 44°
2026-05-06 18:22 55.73123 12.84379 6745 ft 265 kts 78°
2026-05-06 18:23 55.73009 12.87637 7173 ft 272 kts 105°
2026-05-06 18:23 55.71997 12.90396 6960 ft 274 kts 140°
2026-05-06 18:23 55.70243 12.91761 6971 ft 280 kts 167°
2026-05-06 18:23 55.68280 12.91981 6969 ft 282 kts 186°
2026-05-06 18:24 55.66348 12.91402 6963 ft 281 kts 185°
2026-05-06 18:24 55.64400 12.91397 6966 ft 280 kts 172°
2026-05-06 18:24 55.62490 12.92025 6973 ft 278 kts 167°
2026-05-06 18:24 55.60551 12.92074 6955 ft 287 kts 192°
2026-05-06 18:25 55.58733 12.90459 7474 ft 301 kts 221°
2026-05-06 18:25 55.57270 12.87863 8765 ft 293 kts 224°
2026-05-06 18:25 55.55758 12.85516 10154 ft 286 kts 221°
2026-05-06 18:25 55.54221 12.83254 11114 ft 292 kts 221°
2026-05-06 18:26 55.52618 12.80872 11709 ft 310 kts 222°
2026-05-06 18:26 55.50928 12.78329 12252 ft 329 kts 222°
2026-05-06 18:26 55.49144 12.75628 12776 ft 347 kts 222°
2026-05-06 18:26 55.47266 12.72767 13270 ft 366 kts 222°
2026-05-06 18:27 55.45301 12.69763 13856 ft 380 kts 223°
2026-05-06 18:27 55.43285 12.66679 14663 ft 384 kts 222°
2026-05-06 18:27 55.41253 12.63575 15552 ft 387 kts 222°
2026-05-06 18:27 55.39210 12.60459 16438 ft 391 kts 222°
2026-05-06 18:28 55.37145 12.57310 17289 ft 395 kts 222°
2026-05-06 18:28 55.35056 12.54132 18128 ft 399 kts 222°
2026-05-06 18:28 55.32945 12.50923 18865 ft 403 kts 222°
2026-05-06 18:28 55.30843 12.47734 19577 ft 406 kts 222°
2026-05-06 18:29 55.28698 12.44485 20336 ft 410 kts 222°
2026-05-06 18:29 55.26520 12.41190 21083 ft 413 kts 222°
2026-05-06 18:29 55.24335 12.37887 21803 ft 416 kts 222°
2026-05-06 18:29 55.22129 12.34556 22475 ft 419 kts 222°
2026-05-06 18:30 55.19906 12.31203 23130 ft 423 kts 222°
2026-05-06 18:30 55.17655 12.27814 23796 ft 427 kts 222°
2026-05-06 18:30 55.15391 12.24406 24380 ft 430 kts 222°
2026-05-06 18:30 55.13121 12.20992 24970 ft 433 kts 221°
2026-05-06 18:31 55.10823 12.17545 25551 ft 436 kts 221°
2026-05-06 18:31 55.08538 12.14124 26113 ft 439 kts 221°
2026-05-06 18:31 55.06203 12.10637 26670 ft 443 kts 221°
2026-05-06 18:31 55.03853 12.07136 27276 ft 445 kts 220°
2026-05-06 18:32 55.01486 12.03612 27835 ft 448 kts 220°
2026-05-06 18:32 54.99093 12.00055 28388 ft 451 kts 220°
2026-05-06 18:32 54.96709 11.96519 29010 ft 452 kts 220°
2026-05-06 18:32 54.94322 11.92982 29884 ft 448 kts 220°
2026-05-06 18:33 54.91958 11.89483 30608 ft 446 kts 220°
2026-05-06 18:33 54.89589 11.85991 31207 ft 446 kts 220°
2026-05-06 18:33 54.87221 11.82505 31798 ft 445 kts 220°
2026-05-06 18:33 54.84860 11.79033 32452 ft 444 kts 220°
2026-05-06 18:34 54.82531 11.75613 33147 ft 441 kts 220°
2026-05-06 18:34 54.80185 11.72172 33734 ft 440 kts 220°
2026-05-06 18:34 54.77851 11.68752 33945 ft 439 kts 220°
2026-05-06 18:34 54.75520 11.65339 33930 ft 438 kts 220°
2026-05-06 18:35 54.70850 11.58520 33917 ft 438 kts 220°
2026-05-06 18:35 54.66159 11.51695 33927 ft 442 kts 220°
2026-05-06 18:36 54.61447 11.44857 33923 ft 442 kts 220°
2026-05-06 18:36 54.56726 11.38031 33923 ft 442 kts 220°
2026-05-06 18:37 54.52797 11.32365 33935 ft 442 kts 220°
2026-05-06 18:37 54.49471 11.28375 33914 ft 441 kts 209°
2026-05-06 18:37 54.46663 11.26186 33905 ft 444 kts 201°
2026-05-06 18:38 54.40629 11.23598 33919 ft 448 kts 193°
2026-05-06 18:38 54.35543 11.21826 33917 ft 448 kts 193°
2026-05-06 18:39 54.29425 11.19690 33909 ft 448 kts 193°
2026-05-06 18:40 54.20248 11.16464 33896 ft 450 kts 193°
2026-05-06 18:40 54.14111 11.14306 33902 ft 450 kts 193°
2026-05-06 18:41 54.07966 11.12149 33898 ft 450 kts 193°
2026-05-06 18:41 54.01815 11.09997 33897 ft 450 kts 193°
2026-05-06 18:42 53.95694 11.07861 33895 ft 451 kts 193°
2026-05-06 18:42 53.89546 11.05721 33897 ft 451 kts 193°
2026-05-06 18:43 53.83398 11.03589 33898 ft 451 kts 193°
2026-05-06 18:43 53.77218 11.01452 33897 ft 451 kts 193°
2026-05-06 18:44 53.71080 10.99339 33888 ft 449 kts 193°
2026-05-06 18:44 53.65016 10.97255 33890 ft 447 kts 193°
2026-05-06 18:45 53.58918 10.95162 33886 ft 447 kts 193°
2026-05-06 18:45 53.52823 10.93077 33878 ft 447 kts 193°
2026-05-06 18:46 53.46725 10.91003 33865 ft 446 kts 193°
2026-05-06 18:46 53.40636 10.88933 33863 ft 446 kts 193°
2026-05-06 18:47 53.34592 10.86884 33877 ft 446 kts 193°
2026-05-06 18:47 53.28508 10.84828 33863 ft 446 kts 193°
2026-05-06 18:48 53.22418 10.82777 33856 ft 446 kts 193°
2026-05-06 18:48 53.16336 10.80734 33858 ft 445 kts 193°
2026-05-06 18:49 53.10254 10.78697 33863 ft 445 kts 193°
2026-05-06 18:49 53.04175 10.76666 33863 ft 446 kts 193°
2026-05-06 18:50 52.98117 10.74648 33859 ft 446 kts 193°
2026-05-06 18:50 52.92035 10.72628 33855 ft 445 kts 193°
2026-05-06 18:51 52.85947 10.70612 33855 ft 446 kts 193°
2026-05-06 18:51 52.79862 10.68603 33852 ft 446 kts 193°
2026-05-06 18:52 52.73773 10.66598 33841 ft 446 kts 193°
2026-05-06 18:52 52.67729 10.64614 33845 ft 446 kts 193°
2026-05-06 18:53 52.61634 10.62619 33840 ft 446 kts 193°
2026-05-06 18:53 52.55542 10.60631 33834 ft 446 kts 193°
2026-05-06 18:54 52.49455 10.58649 33824 ft 443 kts 193°
2026-05-06 18:54 52.43430 10.56694 33824 ft 442 kts 193°
2026-05-06 18:55 52.37388 10.54739 33826 ft 442 kts 193°
2026-05-06 18:55 52.31352 10.52791 33822 ft 442 kts 193°
2026-05-06 18:56 52.25307 10.50844 33820 ft 442 kts 193°
2026-05-06 18:56 52.19266 10.48905 33820 ft 441 kts 193°
2026-05-06 18:57 52.13235 10.46975 33819 ft 441 kts 193°
2026-05-06 18:57 52.07211 10.45052 33814 ft 441 kts 193°
2026-05-06 18:58 52.01164 10.43125 33800 ft 442 kts 193°
2026-05-06 18:58 51.95159 10.41220 33802 ft 442 kts 193°
2026-05-06 18:59 51.89130 10.39312 33801 ft 442 kts 193°
2026-05-06 18:59 51.83083 10.37403 33801 ft 442 kts 193°
2026-05-06 19:00 51.77042 10.35498 33796 ft 443 kts 193°
2026-05-06 19:00 51.70977 10.33596 33801 ft 443 kts 193°
2026-05-06 19:01 51.65021 10.31737 33752 ft 428 kts 193°
2026-05-06 19:01 51.62111 10.30830 33181 ft 426 kts 193°
2026-05-06 19:01 51.59191 10.29919 32320 ft 429 kts 193°
2026-05-06 19:01 51.56257 10.29004 31592 ft 431 kts 193°
2026-05-06 19:02 51.53317 10.28086 30936 ft 430 kts 193°
2026-05-06 19:02 51.50367 10.27166 30253 ft 431 kts 192°
2026-05-06 19:02 51.47428 10.26252 29501 ft 431 kts 192°
2026-05-06 19:02 51.44508 10.25348 28647 ft 433 kts 192°
2026-05-06 19:03 51.41544 10.24431 27747 ft 435 kts 193°
2026-05-06 19:03 51.38547 10.23505 26778 ft 439 kts 193°
2026-05-06 19:03 51.35527 10.22692 25944 ft 441 kts 189°
2026-05-06 19:03 51.32482 10.22161 25377 ft 438 kts 187°
2026-05-06 19:04 51.29623 10.21908 24799 ft 435 kts 184°
2026-05-06 19:04 51.26616 10.21849 24191 ft 433 kts 183°
2026-05-06 19:04 51.23614 10.21790 23862 ft 431 kts 183°
2026-05-06 19:04 51.20591 10.21722 23802 ft 433 kts 183°
2026-05-06 19:05 51.17572 10.21655 23798 ft 434 kts 183°
2026-05-06 19:05 51.14549 10.21590 23795 ft 434 kts 183°
2026-05-06 19:05 51.11533 10.21531 23788 ft 434 kts 182°
2026-05-06 19:05 51.08506 10.21472 23789 ft 436 kts 182°
2026-05-06 19:06 51.05465 10.21420 23790 ft 436 kts 182°
2026-05-06 19:06 51.02423 10.21369 23796 ft 436 kts 182°
2026-05-06 19:06 50.99384 10.21317 23781 ft 434 kts 182°
2026-05-06 19:06 50.96388 10.21265 23441 ft 427 kts 182°
2026-05-06 19:07 50.93415 10.21212 22592 ft 428 kts 182°
2026-05-06 19:07 50.90435 10.21157 21676 ft 426 kts 182°
2026-05-06 19:07 50.87532 10.21086 20954 ft 419 kts 184°
2026-05-06 19:07 50.84701 10.20229 20121 ft 413 kts 201°
2026-05-06 19:08 50.82215 10.18050 19377 ft 407 kts 218°
2026-05-06 19:08 50.80206 10.14935 18647 ft 402 kts 228°
2026-05-06 19:08 50.78347 10.11643 17881 ft 398 kts 229°
2026-05-06 19:08 50.76511 10.08384 17042 ft 395 kts 228°
2026-05-06 19:09 50.74686 10.05167 16287 ft 391 kts 228°
2026-05-06 19:09 50.72874 10.01994 15535 ft 386 kts 228°
2026-05-06 19:09 50.71081 9.98870 14813 ft 382 kts 228°
2026-05-06 19:09 50.69297 9.95775 14095 ft 378 kts 228°
2026-05-06 19:10 50.67537 9.92726 13372 ft 375 kts 227°
2026-05-06 19:10 50.65786 9.89702 12606 ft 370 kts 227°
2026-05-06 19:10 50.64055 9.86715 11866 ft 366 kts 227°
2026-05-06 19:10 50.62343 9.83766 11200 ft 361 kts 227°
2026-05-06 19:11 50.60640 9.80836 10859 ft 360 kts 227°
2026-05-06 19:11 50.58952 9.77937 10792 ft 359 kts 227°
2026-05-06 19:11 50.57256 9.75026 10794 ft 359 kts 227°
2026-05-06 19:11 50.55583 9.72157 10840 ft 360 kts 227°
2026-05-06 19:12 50.53889 9.69255 10807 ft 360 kts 227°
2026-05-06 19:12 50.52197 9.66360 10800 ft 359 kts 227°
2026-05-06 19:12 50.50504 9.63450 10803 ft 359 kts 229°
2026-05-06 19:12 50.48977 9.60332 10797 ft 360 kts 236°
2026-05-06 19:13 50.47692 9.56967 10795 ft 360 kts 242°
2026-05-06 19:13 50.46704 9.53589 10801 ft 361 kts 248°
2026-05-06 19:13 50.45894 9.49857 10803 ft 362 kts 252°
2026-05-06 19:13 50.45170 9.46048 10799 ft 362 kts 252°
2026-05-06 19:14 50.44463 9.42258 10797 ft 362 kts 252°
2026-05-06 19:14 50.43752 9.38464 10799 ft 362 kts 252°
2026-05-06 19:14 50.43523 9.37247 10805 ft 362 kts 252°